Location: Hilton Head Island
(32.2163°N, 80.7526°W)
Time: 22:38:01
(UTC-04:00)

Explorer 7 - Pass Details

Date: 19 February 2026
Orbit: 430 x 542 km, 50.2° (Epoch: 8 March)

Event Time Altitude Azimuth Distance (km) Brightness Sun altitude
Rises 14:01:32 0° 236° (SW) 2,386 10.8 42.2°
Reaches altitude 10° 14:03:38 10° 241° (WSW) 1,528 9.9 42.0°
Maximum altitude 14:07:01 55° 319° (NW) 532 7.2 41.6°
Drops below altitude 10° 14:10:29 10° 39° (NE) 1,573 8.8 41.3°
Sets 14:12:41 0° 44° (NE) 2,466 9.7 41.0°
